Location: Vancouver
(49.2827°N, 123.1207°W)
Time: 03:21:59
(UTC-07:00)

Envisat - Pass Details

Date: 01 June 2024
Orbit: 762 x 764 km, 98.3° (Epoch: 19 June)

Event Time Altitude Azimuth Distance (km) Brightness Sun altitude
Rises 03:52:16 0° 21° (NNE) 3,239 7.9 -10.0°
Reaches altitude 10° 03:54:47 10° 30° (NNE) 2,308 7.1 -9.8°
Maximum altitude 03:59:25 34° 96° (E) 1,232 4.4 -9.3°
Drops below altitude 10° 04:04:00 10° 161° (SSE) 2,292 5.2 -8.8°
Sets 04:06:29 0° 170° (S) 3,212 5.8 -8.5°
